When you browse on this site, cookies collect data to enhance your experience and personalize the content and advertising you see.
Visit our Privacy Policy to learn more. By continuing to use the site, you agree to this use of cookies and data.
  • In Portugal
  • List of Countries
  • For 7 days
  • Water Temperature
  • Weather Map
  • Weather Widgets
  • user-avatar
    Login

    Hourly Weather Mingachevir

    Today, 4 June, Thursday

    Time Temperature Precipitation Wind Pressure Humidity
    00:00 +25°C° 0 mm 3 mps 747 mmHg 54%
    01:00 +23°C° 0 mm 4 mps 747 mmHg 58%
    02:00 +22°C° 0 mm 4 mps 747 mmHg 62%
    03:00 +22°C° 0 mm 4 mps 747 mmHg 60%
    04:00 +22°C° 0 mm 4 mps 748 mmHg 60%
    05:00 +22°C° 0 mm 3 mps 748 mmHg 60%
    06:00 +24°C° 0 mm 3 mps 748 mmHg 60%
    07:00 +25°C° 0 mm 3 mps 748 mmHg 54%
    08:00 +27°C° 0 mm 2 mps 748 mmHg 49%
    09:00 +29°C° 0 mm 2 mps 749 mmHg 41%
    10:00 +31°C° 0 mm 3 mps 749 mmHg 38%
    11:00 +33°C° 0 mm 4 mps 748 mmHg 34%
    12:00 +35°C° 0 mm 5 mps 748 mmHg 31%
    13:00 +35°C° 0 mm 6 mps 748 mmHg 32%
    14:00 +35°C° 0 mm 7 mps 748 mmHg 34%
    15:00 +35°C° 0 mm 8 mps 748 mmHg 35%
    16:00 +34°C° 0 mm 8 mps 748 mmHg 38%
    17:00 +33°C° 0 mm 8 mps 748 mmHg 40%
    18:00 +31°C° 0 mm 8 mps 748 mmHg 43%
    19:00 +29°C° 0 mm 7 mps 749 mmHg 47%
    20:00 +27°C° 0 mm 6 mps 749 mmHg 52%
    21:00 +24°C° 0 mm 6 mps 750 mmHg 56%
    22:00 +23°C° 0 mm 5 mps 750 mmHg 59%
    23:00 +22°C° 0 mm 4 mps 750 mmHg 62%

    Tomorrow, 5 June, Friday

    Time Temperature Precipitation Wind Pressure Humidity
    00:00 +22°C° 0 mm 3 mps 751 mmHg 65%
    01:00 +21°C° 0 mm 2 mps 751 mmHg 66%
    02:00 +21°C° 0 mm 2 mps 751 mmHg 67%
    03:00 +21°C° 0 mm 1 mps 751 mmHg 69%
    04:00 +21°C° 0 mm 3 mps 751 mmHg 67%
    05:00 +22°C° 0 mm 4 mps 752 mmHg 66%
    06:00 +23°C° 0 mm 6 mps 752 mmHg 64%
    07:00 +24°C° 0 mm 6 mps 752 mmHg 58%
    08:00 +27°C° 0 mm 5 mps 752 mmHg 51%
    09:00 +29°C° 0 mm 5 mps 752 mmHg 45%
    10:00 +30°C° 0 mm 5 mps 752 mmHg 41%
    11:00 +33°C° 0 mm 4 mps 752 mmHg 37%
    12:00 +34°C° 0 mm 4 mps 751 mmHg 33%
    13:00 +35°C° 0 mm 4 mps 751 mmHg 29%
    14:00 +36°C° 0 mm 4 mps 751 mmHg 26%
    15:00 +37°C° 0 mm 3 mps 751 mmHg 23%
    16:00 +36°C° 0.1 mm 3 mps 751 mmHg 25%
    17:00 +35°C° 0.1 mm 3 mps 751 mmHg 28%
    18:00 +34°C° 0.1 mm 3 mps 752 mmHg 31%
    19:00 +31°C° 0 mm 3 mps 752 mmHg 38%
    20:00 +28°C° 0 mm 3 mps 753 mmHg 45%
    21:00 +26°C° 0 mm 3 mps 754 mmHg 52%
    22:00 +25°C° 0 mm 3 mps 754 mmHg 53%
    23:00 +24°C° 0 mm 3 mps 754 mmHg 55%

    Day after tomorrow, 6 June, Saturday

    Time Temperature Precipitation Wind Pressure Humidity
    00:00 +23°C° 0 mm 2 mps 755 mmHg 57%
    01:00 +23°C° 0.1 mm 2 mps 755 mmHg 59%
    02:00 +23°C° 0.1 mm 2 mps 755 mmHg 61%
    03:00 +21°C° 0.1 mm 2 mps 755 mmHg 63%
    04:00 +21°C° 0.4 mm 2 mps 755 mmHg 64%
    05:00 +21°C° 0.4 mm 2 mps 755 mmHg 64%
    06:00 +23°C° 0.4 mm 2 mps 755 mmHg 64%
    07:00 +23°C° 0.9 mm 2 mps 755 mmHg 63%
    08:00 +24°C° 0.9 mm 2 mps 755 mmHg 62%
    09:00 +24°C° 0.9 mm 3 mps 756 mmHg 60%
    10:00 +25°C° 1 mm 3 mps 755 mmHg 58%
    11:00 +26°C° 1 mm 4 mps 755 mmHg 56%
    12:00 +27°C° 1 mm 5 mps 755 mmHg 54%
    13:00 +28°C° 0.1 mm 5 mps 755 mmHg 51%
    14:00 +29°C° 0.1 mm 5 mps 755 mmHg 47%
    15:00 +30°C° 0.1 mm 5 mps 754 mmHg 43%
    16:00 +30°C° 0 mm 5 mps 754 mmHg 44%
    17:00 +29°C° 0 mm 4 mps 755 mmHg 45%
    18:00 +29°C° 0 mm 4 mps 755 mmHg 45%
    19:00 +27°C° 0.1 mm 4 mps 755 mmHg 48%
    20:00 +26°C° 0.1 mm 4 mps 755 mmHg 51%
    21:00 +25°C° 0.1 mm 4 mps 755 mmHg 55%
    22:00 +23°C° 0.5 mm 4 mps 755 mmHg 59%
    23:00 +22°C° 0.5 mm 3 mps 755 mmHg 63%

    7 June, Sunday

    Time Temperature Precipitation Wind Pressure Humidity
    00:00 +21°C° 0.5 mm 3 mps 755 mmHg 68%
    01:00 +21°C° 0.2 mm 2 mps 755 mmHg 70%
    02:00 +20°C° 0.2 mm 2 mps 755 mmHg 72%
    03:00 +21°C° 0.2 mm 1 mps 755 mmHg 73%
    04:00 +21°C° 0 mm 1 mps 755 mmHg 71%
    05:00 +22°C° 0 mm 1 mps 755 mmHg 69%
    06:00 +20°C° 0 mm 0 mps 755 mmHg 67%
    07:00 +24°C° 0 mm 1 mps 755 mmHg 61%
    08:00 +25°C° 0 mm 1 mps 755 mmHg 54%
    09:00 +27°C° 0 mm 1 mps 755 mmHg 48%
    10:00 +28°C° 0 mm 2 mps 755 mmHg 44%
    11:00 +29°C° 0 mm 2 mps 755 mmHg 41%
    12:00 +31°C° 0 mm 2 mps 754 mmHg 37%
    13:00 +31°C° 0 mm 2 mps 754 mmHg 36%
    14:00 +33°C° 0 mm 3 mps 754 mmHg 34%
    15:00 +33°C° 0 mm 3 mps 753 mmHg 33%
    16:00 +33°C° 0 mm 3 mps 753 mmHg 34%
    17:00 +33°C° 0 mm 3 mps 753 mmHg 34%
    18:00 +31°C° 0 mm 3 mps 753 mmHg 35%
    19:00 +30°C° 0 mm 4 mps 753 mmHg 38%
    20:00 +28°C° 0 mm 4 mps 754 mmHg 42%
    21:00 +26°C° 0 mm 5 mps 754 mmHg 45%
    22:00 +25°C° 0 mm 4 mps 754 mmHg 46%
    23:00 +24°C° 0 mm 3 mps 754 mmHg 46%

    8 June, Monday

    Time Temperature Precipitation Wind Pressure Humidity
    00:00 +23°C° 0 mm 2 mps 754 mmHg 47%
    01:00 +21°C° 0 mm 2 mps 753 mmHg 48%
    02:00 +22°C° 0 mm 1 mps 753 mmHg 49%
    03:00 +21°C° 0 mm 1 mps 753 mmHg 50%
    04:00 +22°C° 0 mm 1 mps 753 mmHg 49%
    05:00 +21°C° 0 mm 0 mps 753 mmHg 47%
    06:00 +21°C° 0 mm 0 mps 753 mmHg 46%
    07:00 +25°C° 0 mm 1 mps 753 mmHg 43%
    08:00 +26°C° 0 mm 1 mps 753 mmHg 39%
    09:00 +28°C° 0 mm 2 mps 752 mmHg 35%
    10:00 +29°C° 0 mm 2 mps 752 mmHg 33%
    11:00 +31°C° 0 mm 2 mps 752 mmHg 31%
    12:00 +32°C° 0 mm 2 mps 751 mmHg 29%
    13:00 +34°C° 0 mm 3 mps 751 mmHg 28%
    14:00 +34°C° 0 mm 3 mps 751 mmHg 27%
    15:00 +35°C° 0 mm 3 mps 750 mmHg 26%
    16:00 +35°C° 0 mm 3 mps 750 mmHg 28%
    17:00 +34°C° 0 mm 3 mps 750 mmHg 29%
    18:00 +34°C° 0 mm 3 mps 750 mmHg 30%
    19:00 +31°C° 0 mm 3 mps 751 mmHg 33%
    20:00 +29°C° 0 mm 3 mps 751 mmHg 36%
    21:00 +27°C° 0 mm 4 mps 751 mmHg 39%
    22:00 +25°C° 0 mm 4 mps 751 mmHg 40%
    23:00 +24°C° 0 mm 3 mps 751 mmHg 41%

    9 June, Tuesday

    Time Temperature Precipitation Wind Pressure Humidity
    00:00 +22°C° 0 mm 3 mps 751 mmHg 42%
    01:00 +22°C° 0 mm 3 mps 751 mmHg 45%
    02:00 +21°C° 0 mm 2 mps 751 mmHg 47%
    03:00 +20°C° 0 mm 2 mps 751 mmHg 50%
    04:00 +22°C° 0 mm 1 mps 751 mmHg 50%
    05:00 +23°C° 0 mm 1 mps 752 mmHg 50%
    06:00 +21°C° 0 mm 0 mps 752 mmHg 50%
    07:00 +25°C° 0 mm 1 mps 752 mmHg 45%
    08:00 +27°C° 0 mm 1 mps 752 mmHg 39%
    09:00 +28°C° 0 mm 2 mps 751 mmHg 33%
    10:00 +30°C° 0 mm 2 mps 751 mmHg 30%
    11:00 +33°C° 0 mm 3 mps 751 mmHg 26%
    12:00 +34°C° 0 mm 3 mps 751 mmHg 23%
    13:00 +35°C° 0 mm 4 mps 751 mmHg 23%
    14:00 +35°C° 0 mm 4 mps 751 mmHg 23%
    15:00 +36°C° 0 mm 4 mps 750 mmHg 23%
    16:00 +35°C° 0 mm 4 mps 750 mmHg 25%
    17:00 +35°C° 0 mm 5 mps 750 mmHg 28%
    18:00 +34°C° 0 mm 5 mps 750 mmHg 31%
    19:00 +32°C° 0 mm 5 mps 750 mmHg 34%
    20:00 +29°C° 0 mm 4 mps 751 mmHg 38%
    21:00 +27°C° 0 mm 4 mps 752 mmHg 42%
    22:00 +26°C° 0 mm 4 mps 752 mmHg 44%
    23:00 +25°C° 0 mm 3 mps 752 mmHg 45%
    Show more